Year,Month,Day,Hour,Minute,Value (Times are PST for temperature in C)
2018,07,25,00,00,19.60
2018,07,25,00,01,19.60
2018,07,25,00,02,19.50
2018,07,25,00,03,19.50
2018,07,25,00,04,19.40
2018,07,25,00,05,19.40
2018,07,25,00,06,19.40
2018,07,25,00,07,19.40
2018,07,25,00,08,19.30
2018,07,25,00,09,19.30
2018,07,25,00,10,19.30
2018,07,25,00,11,19.30
2018,07,25,00,12,19.20
2018,07,25,00,13,19.20
2018,07,25,00,14,19.20
2018,07,25,00,15,19.20
2018,07,25,00,16,19.10
2018,07,25,00,17,19.10
2018,07,25,00,18,19.10
2018,07,25,00,19,19.10
2018,07,25,00,20,19.10
2018,07,25,00,21,19.00
2018,07,25,00,22,19.00
2018,07,25,00,23,19.00
2018,07,25,00,24,19.00
2018,07,25,00,25,19.00
2018,07,25,00,26,18.90
2018,07,25,00,27,18.90
2018,07,25,00,28,18.90
2018,07,25,00,29,18.90
2018,07,25,00,30,18.90
2018,07,25,00,31,18.90
2018,07,25,00,32,18.90
2018,07,25,00,33,18.90
2018,07,25,00,34,18.90
2018,07,25,00,35,18.90
2018,07,25,00,36,18.80
2018,07,25,00,37,18.80
2018,07,25,00,38,18.80
2018,07,25,00,39,18.80
2018,07,25,00,40,18.80
2018,07,25,00,41,18.80
2018,07,25,00,42,18.80
2018,07,25,00,43,18.80
2018,07,25,00,44,18.80
2018,07,25,00,45,18.70
2018,07,25,00,46,18.70
2018,07,25,00,47,18.70
2018,07,25,00,48,18.70
2018,07,25,00,49,18.70
2018,07,25,00,50,18.70
2018,07,25,00,51,18.70
2018,07,25,00,52,18.70
2018,07,25,00,53,18.70
2018,07,25,00,54,18.60
2018,07,25,00,55,18.60
2018,07,25,00,56,18.60
2018,07,25,00,57,18.60
2018,07,25,00,58,18.50
2018,07,25,00,59,18.50
2018,07,25,01,00,18.50
2018,07,25,01,01,18.50
2018,07,25,01,02,18.40
2018,07,25,01,03,18.40
2018,07,25,01,04,18.40
2018,07,25,01,05,18.30
2018,07,25,01,06,18.30
2018,07,25,01,07,18.30
2018,07,25,01,08,18.30
2018,07,25,01,09,18.20
2018,07,25,01,10,18.20
2018,07,25,01,11,18.20
2018,07,25,01,12,18.20
2018,07,25,01,13,18.20
2018,07,25,01,14,18.20
2018,07,25,01,15,18.10
2018,07,25,01,16,18.10
2018,07,25,01,17,18.10
2018,07,25,01,18,18.10
2018,07,25,01,19,18.10
2018,07,25,01,20,18.00
2018,07,25,01,21,18.00
2018,07,25,01,22,18.00
2018,07,25,01,23,18.00
2018,07,25,01,24,17.90
2018,07,25,01,25,17.90
2018,07,25,01,26,17.90
2018,07,25,01,27,17.90
2018,07,25,01,28,17.90
2018,07,25,01,29,17.90
2018,07,25,01,30,17.80
2018,07,25,01,31,17.80
2018,07,25,01,32,17.80
2018,07,25,01,33,17.70
2018,07,25,01,34,17.70
2018,07,25,01,35,17.70
2018,07,25,01,36,17.70
2018,07,25,01,37,17.60
2018,07,25,01,38,17.60
2018,07,25,01,39,17.60
2018,07,25,01,40,17.60
2018,07,25,01,41,17.60
2018,07,25,01,42,17.60
2018,07,25,01,43,17.60
2018,07,25,01,44,17.60
2018,07,25,01,45,17.50
2018,07,25,01,46,17.50
2018,07,25,01,47,17.50
2018,07,25,01,48,17.50
2018,07,25,01,49,17.50
2018,07,25,01,50,17.50
2018,07,25,01,51,17.40
2018,07,25,01,52,17.40
2018,07,25,01,53,17.40
2018,07,25,01,54,17.40
2018,07,25,01,55,17.40
2018,07,25,01,56,17.40
2018,07,25,01,57,17.40
2018,07,25,01,58,17.40
2018,07,25,01,59,17.40
2018,07,25,02,00,17.40
2018,07,25,02,01,17.40
2018,07,25,02,02,17.40
2018,07,25,02,03,17.40
2018,07,25,02,04,17.40
2018,07,25,02,05,17.40
2018,07,25,02,06,17.40
2018,07,25,02,07,17.40
2018,07,25,02,08,17.40
2018,07,25,02,09,17.40
2018,07,25,02,10,17.40
2018,07,25,02,11,17.40
2018,07,25,02,12,17.40
2018,07,25,02,13,17.40
2018,07,25,02,14,17.30
2018,07,25,02,15,17.30
2018,07,25,02,16,17.30
2018,07,25,02,17,17.30
2018,07,25,02,18,17.30
2018,07,25,02,19,17.20
2018,07,25,02,20,17.20
2018,07,25,02,21,17.20
2018,07,25,02,22,17.20
2018,07,25,02,23,17.20
2018,07,25,02,24,17.10
2018,07,25,02,25,17.10
2018,07,25,02,26,17.10
2018,07,25,02,27,17.10
2018,07,25,02,28,17.10
2018,07,25,02,29,17.10
2018,07,25,02,30,17.10
2018,07,25,02,31,17.10
2018,07,25,02,32,17.10
2018,07,25,02,33,17.10
2018,07,25,02,34,17.10
2018,07,25,02,35,17.10
2018,07,25,02,36,17.10
2018,07,25,02,37,17.10
2018,07,25,02,38,17.10
2018,07,25,02,39,17.10
2018,07,25,02,40,17.00
2018,07,25,02,41,17.00
2018,07,25,02,42,17.00
2018,07,25,02,43,17.00
2018,07,25,02,44,17.00
2018,07,25,02,45,16.90
2018,07,25,02,46,16.90
2018,07,25,02,47,16.90
2018,07,25,02,48,16.80
2018,07,25,02,49,16.80
2018,07,25,02,50,16.80
2018,07,25,02,51,16.70
2018,07,25,02,52,16.70
2018,07,25,02,53,16.70
2018,07,25,02,54,16.70
2018,07,25,02,55,16.60
2018,07,25,02,56,16.60
2018,07,25,02,57,16.60
2018,07,25,02,58,16.50
2018,07,25,02,59,16.50
2018,07,25,03,00,16.50
2018,07,25,03,01,16.40
2018,07,25,03,02,16.40
2018,07,25,03,03,16.40
2018,07,25,03,04,16.40
2018,07,25,03,05,16.30
2018,07,25,03,06,16.30
2018,07,25,03,07,16.30
2018,07,25,03,08,16.30
2018,07,25,03,09,16.30
2018,07,25,03,10,16.30
2018,07,25,03,11,16.30
2018,07,25,03,12,16.30
2018,07,25,03,13,16.20
2018,07,25,03,14,16.20
2018,07,25,03,15,16.20
2018,07,25,03,16,16.20
2018,07,25,03,17,16.20
2018,07,25,03,18,16.10
2018,07,25,03,19,16.10
2018,07,25,03,20,16.10
2018,07,25,03,21,16.10
2018,07,25,03,22,16.10
2018,07,25,03,23,16.00
2018,07,25,03,24,16.00
2018,07,25,03,25,16.00
2018,07,25,03,26,16.00
2018,07,25,03,27,16.00
2018,07,25,03,28,15.90
2018,07,25,03,29,15.90
2018,07,25,03,30,15.90
2018,07,25,03,31,15.90
2018,07,25,03,32,15.90
2018,07,25,03,33,15.80
2018,07,25,03,34,15.80
2018,07,25,03,35,15.80
2018,07,25,03,36,15.80
2018,07,25,03,37,15.70
2018,07,25,03,38,15.70
2018,07,25,03,39,15.70
2018,07,25,03,40,15.70
2018,07,25,03,41,15.60
2018,07,25,03,42,15.60
2018,07,25,03,43,15.60
2018,07,25,03,44,15.60
2018,07,25,03,45,15.60
2018,07,25,03,46,15.50
2018,07,25,03,47,15.50
2018,07,25,03,48,15.50
2018,07,25,03,49,15.50
2018,07,25,03,50,15.40
2018,07,25,03,51,15.40
2018,07,25,03,52,15.40
2018,07,25,03,53,15.40
2018,07,25,03,54,15.40
2018,07,25,03,55,15.30
2018,07,25,03,56,15.30
2018,07,25,03,57,15.30
2018,07,25,03,58,15.20
2018,07,25,03,59,15.20
2018,07,25,04,00,15.20
2018,07,25,04,01,15.20
2018,07,25,04,02,15.20
2018,07,25,04,03,15.20
2018,07,25,04,04,15.10
2018,07,25,04,05,15.10
2018,07,25,04,06,15.10
2018,07,25,04,07,15.10
2018,07,25,04,08,15.10
2018,07,25,04,09,15.10
2018,07,25,04,10,15.10
2018,07,25,04,11,15.10
2018,07,25,04,12,15.10
2018,07,25,04,13,15.00
2018,07,25,04,14,15.00
2018,07,25,04,15,15.00
2018,07,25,04,16,15.00
2018,07,25,04,17,15.00
2018,07,25,04,18,15.00
2018,07,25,04,19,15.00
2018,07,25,04,20,15.00
2018,07,25,04,21,15.00
2018,07,25,04,22,15.00
2018,07,25,04,23,15.00
2018,07,25,04,24,15.00
2018,07,25,04,25,15.00
2018,07,25,04,26,15.00
2018,07,25,04,27,15.00
2018,07,25,04,28,15.00
2018,07,25,04,29,15.00
2018,07,25,04,30,15.00
2018,07,25,04,31,15.00
2018,07,25,04,32,15.00
2018,07,25,04,33,15.00
2018,07,25,04,34,15.00
2018,07,25,04,35,15.10
2018,07,25,04,36,15.10
2018,07,25,04,37,15.10
2018,07,25,04,38,15.10
2018,07,25,04,39,15.10
2018,07,25,04,40,15.10
2018,07,25,04,41,15.20
2018,07,25,04,42,15.20
2018,07,25,04,43,15.20
2018,07,25,04,44,15.20
2018,07,25,04,45,15.20
2018,07,25,04,46,15.20
2018,07,25,04,47,15.20
2018,07,25,04,48,15.20
2018,07,25,04,49,15.20
2018,07,25,04,50,15.20
2018,07,25,04,51,15.20
2018,07,25,04,52,15.20
2018,07,25,04,53,15.10
2018,07,25,04,54,15.10
2018,07,25,04,55,15.10
2018,07,25,04,56,15.10
2018,07,25,04,57,15.10
2018,07,25,04,58,15.00
2018,07,25,04,59,15.00
2018,07,25,05,00,15.00
2018,07,25,05,01,15.00
2018,07,25,05,02,14.90
2018,07,25,05,03,14.90
2018,07,25,05,04,14.90
2018,07,25,05,05,14.90
2018,07,25,05,06,14.90
2018,07,25,05,07,14.90
2018,07,25,05,08,14.80
2018,07,25,05,09,14.80
2018,07,25,05,10,14.80
2018,07,25,05,11,14.80
2018,07,25,05,12,14.80
2018,07,25,05,13,14.80
2018,07,25,05,14,14.70
2018,07,25,05,15,14.70
2018,07,25,05,16,14.70
2018,07,25,05,17,14.70
2018,07,25,05,18,14.70
2018,07,25,05,19,14.60
2018,07,25,05,20,14.60
2018,07,25,05,21,14.60
2018,07,25,05,22,14.60
2018,07,25,05,23,14.60
2018,07,25,05,24,14.50
2018,07,25,05,25,14.50
2018,07,25,05,26,14.50
2018,07,25,05,27,14.50
2018,07,25,05,28,14.50
2018,07,25,05,29,14.40
2018,07,25,05,30,14.40
2018,07,25,05,31,14.40
2018,07,25,05,32,14.40
2018,07,25,05,33,14.40
2018,07,25,05,34,14.40
2018,07,25,05,35,14.30
2018,07,25,05,36,14.30
2018,07,25,05,37,14.30
2018,07,25,05,38,14.30
2018,07,25,05,39,14.30
2018,07,25,05,40,14.30
2018,07,25,05,41,14.30
2018,07,25,05,42,14.30
2018,07,25,05,43,14.30
2018,07,25,05,44,14.30
2018,07,25,05,45,14.30
2018,07,25,05,46,14.30
2018,07,25,05,47,14.30
2018,07,25,05,48,14.30
2018,07,25,05,49,14.30
2018,07,25,05,50,14.30
2018,07,25,05,51,14.30
2018,07,25,05,52,14.30
2018,07,25,05,53,14.30
2018,07,25,05,54,14.30
2018,07,25,05,55,14.30
2018,07,25,05,56,14.30
2018,07,25,05,57,14.30
2018,07,25,05,58,14.20
2018,07,25,05,59,14.20
2018,07,25,06,00,14.20
2018,07,25,06,01,14.20
2018,07,25,06,02,14.20
2018,07,25,06,03,14.20
2018,07,25,06,04,14.20
2018,07,25,06,05,14.20
2018,07,25,06,06,14.20
2018,07,25,06,07,14.20
2018,07,25,06,08,14.20
2018,07,25,06,09,14.20
2018,07,25,06,10,14.20
2018,07,25,06,11,14.20
2018,07,25,06,12,14.20
2018,07,25,06,13,14.20
2018,07,25,06,14,14.20
2018,07,25,06,15,14.30
2018,07,25,06,16,14.30
2018,07,25,06,17,14.30
2018,07,25,06,18,14.30
2018,07,25,06,19,14.30
2018,07,25,06,20,14.30
2018,07,25,06,21,14.40
2018,07,25,06,22,14.40
2018,07,25,06,23,14.50
2018,07,25,06,24,14.50
2018,07,25,06,25,14.60
2018,07,25,06,26,14.60
2018,07,25,06,27,14.60
2018,07,25,06,28,14.60
2018,07,25,06,29,14.70
2018,07,25,06,30,14.70
2018,07,25,06,31,14.70
2018,07,25,06,32,14.70
2018,07,25,06,33,14.70
2018,07,25,06,34,14.80
2018,07,25,06,35,14.80
2018,07,25,06,36,14.80
2018,07,25,06,37,14.90
2018,07,25,06,38,14.90
2018,07,25,06,39,15.00
2018,07,25,06,40,15.00
2018,07,25,06,41,15.10
2018,07,25,06,42,15.20
2018,07,25,06,43,15.30
2018,07,25,06,44,15.30
2018,07,25,06,45,15.40
2018,07,25,06,46,15.50
2018,07,25,06,47,15.60
2018,07,25,06,48,15.70
2018,07,25,06,49,15.80
2018,07,25,06,50,15.90
2018,07,25,06,51,16.00
2018,07,25,06,52,16.10
2018,07,25,06,53,16.20
2018,07,25,06,54,16.30
2018,07,25,06,55,16.40
2018,07,25,06,56,16.50
2018,07,25,06,57,16.60
2018,07,25,06,58,16.70
2018,07,25,06,59,16.80
2018,07,25,07,00,16.90
2018,07,25,07,01,17.00
2018,07,25,07,02,17.10
2018,07,25,07,03,17.20
2018,07,25,07,04,17.30
2018,07,25,07,05,17.30
2018,07,25,07,06,17.40
2018,07,25,07,07,17.50
2018,07,25,07,08,17.60
2018,07,25,07,09,17.70
2018,07,25,07,10,17.80
2018,07,25,07,11,17.90
2018,07,25,07,12,18.00
2018,07,25,07,13,18.10
2018,07,25,07,14,18.20
2018,07,25,07,15,18.30
2018,07,25,07,16,18.40
2018,07,25,07,17,18.50
2018,07,25,07,18,18.50
2018,07,25,07,19,18.60
2018,07,25,07,20,18.70
2018,07,25,07,21,18.70
2018,07,25,07,22,18.80
2018,07,25,07,23,18.80
2018,07,25,07,24,18.90
2018,07,25,07,25,18.90
2018,07,25,07,26,18.90
2018,07,25,07,27,18.90
2018,07,25,07,28,18.90
2018,07,25,07,29,18.90
2018,07,25,07,30,18.90
2018,07,25,07,31,18.90
2018,07,25,07,32,19.00
2018,07,25,07,33,19.00
2018,07,25,07,34,19.00
2018,07,25,07,35,19.10
2018,07,25,07,36,19.10
2018,07,25,07,37,19.20
2018,07,25,07,38,19.20
2018,07,25,07,39,19.20
2018,07,25,07,40,19.30
2018,07,25,07,41,19.30
2018,07,25,07,42,19.30
2018,07,25,07,43,19.30
2018,07,25,07,44,19.30
2018,07,25,07,45,19.30
2018,07,25,07,46,19.30
2018,07,25,07,47,19.30
2018,07,25,07,48,19.30
2018,07,25,07,49,19.30
2018,07,25,07,50,19.40
2018,07,25,07,51,19.40
2018,07,25,07,52,19.50
2018,07,25,07,53,19.60
2018,07,25,07,54,19.60
2018,07,25,07,55,19.60
2018,07,25,07,56,19.60
2018,07,25,07,57,19.70
2018,07,25,07,58,19.70
2018,07,25,07,59,19.60
2018,07,25,08,00,19.60
2018,07,25,08,01,19.70
2018,07,25,08,02,19.70
2018,07,25,08,03,19.70
2018,07,25,08,04,19.70
2018,07,25,08,05,19.70
2018,07,25,08,06,19.70
2018,07,25,08,07,19.60
2018,07,25,08,08,19.60
2018,07,25,08,09,19.60
2018,07,25,08,10,19.60
2018,07,25,08,11,19.70
2018,07,25,08,12,19.70
2018,07,25,08,13,19.70
2018,07,25,08,14,19.70
2018,07,25,08,15,19.60
2018,07,25,08,16,19.70
2018,07,25,08,17,19.70
2018,07,25,08,18,19.70
2018,07,25,08,19,19.70
2018,07,25,08,20,19.70
2018,07,25,08,21,19.70
2018,07,25,08,22,19.70
2018,07,25,08,23,19.80
2018,07,25,08,24,19.80
2018,07,25,08,25,19.80
2018,07,25,08,26,19.90
2018,07,25,08,27,19.90
2018,07,25,08,28,20.00
2018,07,25,08,29,20.10
2018,07,25,08,30,20.20
2018,07,25,08,31,20.30
2018,07,25,08,32,20.30
2018,07,25,08,33,20.40
2018,07,25,08,34,20.40
2018,07,25,08,35,20.40
2018,07,25,08,36,20.30
2018,07,25,08,37,20.30
2018,07,25,08,38,20.20
2018,07,25,08,39,20.20
2018,07,25,08,40,20.20
2018,07,25,08,41,20.20
2018,07,25,08,42,20.20
2018,07,25,08,43,20.30
2018,07,25,08,44,20.20
2018,07,25,08,45,20.20
2018,07,25,08,46,20.30
2018,07,25,08,47,20.40
2018,07,25,08,48,20.40
2018,07,25,08,49,20.50
2018,07,25,08,50,20.60
2018,07,25,08,51,20.70
2018,07,25,08,52,20.80
2018,07,25,08,53,20.80
2018,07,25,08,54,20.80
2018,07,25,08,55,20.90
2018,07,25,08,56,20.90
2018,07,25,08,57,20.90
2018,07,25,08,58,20.90
2018,07,25,08,59,20.90
2018,07,25,09,00,21.00
2018,07,25,09,01,21.10
2018,07,25,09,02,21.10
2018,07,25,09,03,21.20
2018,07,25,09,04,21.30
2018,07,25,09,05,21.40
2018,07,25,09,06,21.50
2018,07,25,09,07,21.50
2018,07,25,09,08,21.60
2018,07,25,09,09,21.70
2018,07,25,09,10,21.80
2018,07,25,09,11,21.90
2018,07,25,09,12,22.00
2018,07,25,09,13,22.10
2018,07,25,09,14,22.30
2018,07,25,09,15,22.40
2018,07,25,09,16,22.50
2018,07,25,09,17,22.50
2018,07,25,09,18,22.50
2018,07,25,09,19,22.50
2018,07,25,09,20,22.40
2018,07,25,09,21,22.40
2018,07,25,09,22,22.30
2018,07,25,09,23,22.30
2018,07,25,09,24,22.30
2018,07,25,09,25,22.20
2018,07,25,09,26,22.20
2018,07,25,09,27,22.10
2018,07,25,09,28,22.10
2018,07,25,09,29,22.10
2018,07,25,09,30,22.00
2018,07,25,09,31,22.00
2018,07,25,09,32,22.00
2018,07,25,09,33,22.00
2018,07,25,09,34,22.00
2018,07,25,09,35,22.10
2018,07,25,09,36,22.20
2018,07,25,09,37,22.20
2018,07,25,09,38,22.30
2018,07,25,09,39,22.30
2018,07,25,09,40,22.30
2018,07,25,09,41,22.40
2018,07,25,09,42,22.50
2018,07,25,09,43,22.70
2018,07,25,09,44,22.70
2018,07,25,09,45,22.80
2018,07,25,09,46,22.90
2018,07,25,09,47,23.00
2018,07,25,09,48,23.10
2018,07,25,09,49,23.20
2018,07,25,09,50,23.30
2018,07,25,09,51,23.40
2018,07,25,09,52,23.50
2018,07,25,09,53,23.50
2018,07,25,09,54,23.60
2018,07,25,09,55,23.70
2018,07,25,09,56,23.80
2018,07,25,09,57,23.80
2018,07,25,09,58,23.80
2018,07,25,09,59,23.70
2018,07,25,10,00,23.70
2018,07,25,10,01,23.70
2018,07,25,10,02,23.70
2018,07,25,10,03,23.70
2018,07,25,10,04,23.60
2018,07,25,10,05,23.40
2018,07,25,10,06,23.40
2018,07,25,10,07,23.30
2018,07,25,10,08,23.30
2018,07,25,10,09,23.30
2018,07,25,10,10,23.30
2018,07,25,10,11,23.30
2018,07,25,10,12,23.30
2018,07,25,10,13,23.20
2018,07,25,10,14,23.10
2018,07,25,10,15,23.00
2018,07,25,10,16,22.90
2018,07,25,10,17,22.90
2018,07,25,10,18,22.80
2018,07,25,10,19,22.70
2018,07,25,10,20,22.70
2018,07,25,10,21,22.60
2018,07,25,10,22,22.60
2018,07,25,10,23,22.60
2018,07,25,10,24,22.60
2018,07,25,10,25,22.60
2018,07,25,10,26,22.60
2018,07,25,10,27,22.70
2018,07,25,10,28,22.60
2018,07,25,10,29,22.60
2018,07,25,10,30,22.50
2018,07,25,10,31,22.60
2018,07,25,10,32,22.50
2018,07,25,10,33,22.50
2018,07,25,10,34,22.40
2018,07,25,10,35,22.50
2018,07,25,10,36,22.50
2018,07,25,10,37,22.60
2018,07,25,10,38,22.60
2018,07,25,10,39,22.60
2018,07,25,10,40,22.60
2018,07,25,10,41,22.60
2018,07,25,10,42,22.60
2018,07,25,10,43,22.70
2018,07,25,10,44,22.80
2018,07,25,10,45,22.90
2018,07,25,10,46,22.90
2018,07,25,10,47,22.80
2018,07,25,10,48,22.80
2018,07,25,10,49,22.80
2018,07,25,10,50,22.80
2018,07,25,10,51,22.80
2018,07,25,10,52,22.80
2018,07,25,10,53,22.80
2018,07,25,10,54,22.80
2018,07,25,10,55,22.80
2018,07,25,10,56,22.90
2018,07,25,10,57,23.00
2018,07,25,10,58,23.10
2018,07,25,10,59,23.30
2018,07,25,11,00,23.40
2018,07,25,11,01,23.40
2018,07,25,11,02,23.40
2018,07,25,11,03,23.40
2018,07,25,11,04,23.30
2018,07,25,11,05,23.30
2018,07,25,11,06,23.30
2018,07,25,11,07,23.30
2018,07,25,11,08,23.40
2018,07,25,11,09,23.40
2018,07,25,11,10,23.40
2018,07,25,11,11,23.30
2018,07,25,11,12,23.30
2018,07,25,11,13,23.30
2018,07,25,11,14,23.40
2018,07,25,11,15,23.40
2018,07,25,11,16,23.50
2018,07,25,11,17,23.60
2018,07,25,11,18,23.70
2018,07,25,11,19,23.80
2018,07,25,11,20,23.80
2018,07,25,11,21,23.80
2018,07,25,11,22,23.70
2018,07,25,11,23,23.70
2018,07,25,11,24,23.60
2018,07,25,11,25,23.50
2018,07,25,11,26,23.50
2018,07,25,11,27,23.40
2018,07,25,11,28,23.40
2018,07,25,11,29,23.30
2018,07,25,11,30,23.20
2018,07,25,11,31,23.10
2018,07,25,11,32,23.10
2018,07,25,11,33,23.00
2018,07,25,11,34,23.00
2018,07,25,11,35,23.00
2018,07,25,11,36,23.10
2018,07,25,11,37,23.10
2018,07,25,11,38,23.10
2018,07,25,11,39,23.10
2018,07,25,11,40,23.10
2018,07,25,11,41,23.20
2018,07,25,11,42,23.20
2018,07,25,11,43,23.30
2018,07,25,11,44,23.30
2018,07,25,11,45,23.20
2018,07,25,11,46,23.00
2018,07,25,11,47,23.00
2018,07,25,11,48,22.90
2018,07,25,11,49,23.00
2018,07,25,11,50,23.10
2018,07,25,11,51,23.10
2018,07,25,11,52,23.20
2018,07,25,11,53,23.20
2018,07,25,11,54,23.20
2018,07,25,11,55,23.20
2018,07,25,11,56,23.20
2018,07,25,11,57,23.20
2018,07,25,11,58,23.30
2018,07,25,11,59,23.40
2018,07,25,12,00,23.60
2018,07,25,12,01,23.70
2018,07,25,12,02,23.80
2018,07,25,12,03,23.90
2018,07,25,12,04,23.90
2018,07,25,12,05,23.90
2018,07,25,12,06,23.90
2018,07,25,12,07,24.00
2018,07,25,12,08,24.10
2018,07,25,12,09,24.10
2018,07,25,12,10,24.10
2018,07,25,12,11,24.10
2018,07,25,12,12,24.10
2018,07,25,12,13,24.20
2018,07,25,12,14,24.30
2018,07,25,12,15,24.30
2018,07,25,12,16,24.20
2018,07,25,12,17,24.20
2018,07,25,12,18,24.20
2018,07,25,12,19,24.30
2018,07,25,12,20,24.30
2018,07,25,12,21,24.40
2018,07,25,12,22,24.40
2018,07,25,12,23,24.40
2018,07,25,12,24,24.40
2018,07,25,12,25,24.40
2018,07,25,12,26,24.40
2018,07,25,12,27,24.40
2018,07,25,12,28,24.40
2018,07,25,12,29,24.40
2018,07,25,12,30,24.60
2018,07,25,12,31,24.70
2018,07,25,12,32,24.80
2018,07,25,12,33,24.90
2018,07,25,12,34,25.00
2018,07,25,12,35,25.10
2018,07,25,12,36,25.20
2018,07,25,12,37,25.30
2018,07,25,12,38,25.40
2018,07,25,12,39,25.40
2018,07,25,12,40,25.40
2018,07,25,12,41,25.40
2018,07,25,12,42,25.50
2018,07,25,12,43,25.50
2018,07,25,12,44,25.50
2018,07,25,12,45,25.50
2018,07,25,12,46,25.50
2018,07,25,12,47,25.50
2018,07,25,12,48,25.50
2018,07,25,12,49,25.50
2018,07,25,12,50,25.40
2018,07,25,12,51,25.40
2018,07,25,12,52,25.50
2018,07,25,12,53,25.60
2018,07,25,12,54,25.70
2018,07,25,12,55,25.80
2018,07,25,12,56,25.90
2018,07,25,12,57,26.00
2018,07,25,12,58,26.10
2018,07,25,12,59,26.10
2018,07,25,13,00,26.10
2018,07,25,13,01,26.20
2018,07,25,13,02,26.30
2018,07,25,13,03,26.30
2018,07,25,13,04,26.40
2018,07,25,13,05,26.40
2018,07,25,13,06,26.30
2018,07,25,13,07,26.30
2018,07,25,13,08,26.30
2018,07,25,13,09,26.20
2018,07,25,13,10,26.20
2018,07,25,13,11,26.10
2018,07,25,13,12,26.10
2018,07,25,13,13,26.10
2018,07,25,13,14,26.10
2018,07,25,13,15,26.20
2018,07,25,13,16,26.30
2018,07,25,13,17,26.40
2018,07,25,13,18,26.50
2018,07,25,13,19,26.50
2018,07,25,13,20,26.60
2018,07,25,13,21,26.60
2018,07,25,13,22,26.70
2018,07,25,13,23,26.80
2018,07,25,13,24,26.80
2018,07,25,13,25,26.90
2018,07,25,13,26,26.90
2018,07,25,13,27,26.90
2018,07,25,13,28,26.80
2018,07,25,13,29,26.70
2018,07,25,13,30,26.60
2018,07,25,13,31,26.50
2018,07,25,13,32,26.40
2018,07,25,13,33,26.30
2018,07,25,13,34,26.30
2018,07,25,13,35,26.20
2018,07,25,13,36,26.20
2018,07,25,13,37,26.20
2018,07,25,13,38,26.10
2018,07,25,13,39,26.10
2018,07,25,13,40,26.10
2018,07,25,13,41,26.10
2018,07,25,13,42,26.10
2018,07,25,13,43,26.10
2018,07,25,13,44,26.10
2018,07,25,13,45,26.20
2018,07,25,13,46,26.20
2018,07,25,13,47,26.10
2018,07,25,13,48,26.00
2018,07,25,13,49,26.00
2018,07,25,13,50,25.90
2018,07,25,13,51,25.90
2018,07,25,13,52,25.90
2018,07,25,13,53,25.90
2018,07,25,13,54,25.80
2018,07,25,13,55,25.90
2018,07,25,13,56,25.90
2018,07,25,13,57,25.90
2018,07,25,13,58,25.90
2018,07,25,13,59,25.90
2018,07,25,14,00,25.90
2018,07,25,14,01,25.90
2018,07,25,14,02,25.90
2018,07,25,14,03,25.90
2018,07,25,14,04,26.00
2018,07,25,14,05,26.10
2018,07,25,14,06,26.10
2018,07,25,14,07,26.20
2018,07,25,14,08,26.30
2018,07,25,14,09,26.30
2018,07,25,14,10,26.40
2018,07,25,14,11,26.40
2018,07,25,14,12,26.40
2018,07,25,14,13,26.50
2018,07,25,14,14,26.50
2018,07,25,14,15,26.60
2018,07,25,14,16,26.60
2018,07,25,14,17,26.60
2018,07,25,14,18,26.70
2018,07,25,14,19,26.80
2018,07,25,14,20,26.80
2018,07,25,14,21,26.90
2018,07,25,14,22,27.00
2018,07,25,14,23,27.10
2018,07,25,14,24,27.20
2018,07,25,14,25,27.20
2018,07,25,14,26,27.30
2018,07,25,14,27,27.30
2018,07,25,14,28,27.30
2018,07,25,14,29,27.30
2018,07,25,14,30,27.30
2018,07,25,14,31,27.30
2018,07,25,14,32,27.30
2018,07,25,14,33,27.30
2018,07,25,14,34,27.20
2018,07,25,14,35,27.20
2018,07,25,14,36,27.20
2018,07,25,14,37,27.30
2018,07,25,14,38,27.30
2018,07,25,14,39,27.30
2018,07,25,14,40,27.40
2018,07,25,14,41,27.50
2018,07,25,14,42,27.60
2018,07,25,14,43,27.70
2018,07,25,14,44,27.80
2018,07,25,14,45,27.90
2018,07,25,14,46,28.00
2018,07,25,14,47,28.10
2018,07,25,14,48,28.20
2018,07,25,14,49,28.30
2018,07,25,14,50,28.50
2018,07,25,14,51,28.60
2018,07,25,14,52,28.70
2018,07,25,14,53,28.70
2018,07,25,14,54,28.70
2018,07,25,14,55,28.80
2018,07,25,14,56,28.80
2018,07,25,14,57,28.80
2018,07,25,14,58,28.90
2018,07,25,14,59,28.90
2018,07,25,15,00,28.90
2018,07,25,15,01,28.90
2018,07,25,15,02,28.90
2018,07,25,15,03,28.90
2018,07,25,15,04,28.80
2018,07,25,15,05,28.70
2018,07,25,15,06,28.60
2018,07,25,15,07,28.60
2018,07,25,15,08,28.60
2018,07,25,15,09,28.50
2018,07,25,15,10,28.50
2018,07,25,15,11,28.60
2018,07,25,15,12,28.60
2018,07,25,15,13,28.50
2018,07,25,15,14,28.40
2018,07,25,15,15,28.40
2018,07,25,15,16,28.30
2018,07,25,15,17,28.30
2018,07,25,15,18,28.30
2018,07,25,15,19,28.20
2018,07,25,15,20,28.20
2018,07,25,15,21,28.10
2018,07,25,15,22,28.10
2018,07,25,15,23,28.10
2018,07,25,15,24,28.00
2018,07,25,15,25,28.10
2018,07,25,15,26,28.10
2018,07,25,15,27,28.20
2018,07,25,15,28,28.20
2018,07,25,15,29,28.20
2018,07,25,15,30,28.30
2018,07,25,15,31,28.30
2018,07,25,15,32,28.40
2018,07,25,15,33,28.50
2018,07,25,15,34,28.60
2018,07,25,15,35,28.60
2018,07,25,15,36,28.60
2018,07,25,15,37,28.70
2018,07,25,15,38,28.70
2018,07,25,15,39,28.60
2018,07,25,15,40,28.60
2018,07,25,15,41,28.60
2018,07,25,15,42,28.70
2018,07,25,15,43,28.70
2018,07,25,15,44,28.80
2018,07,25,15,45,28.80
2018,07,25,15,46,28.90
2018,07,25,15,47,29.00
2018,07,25,15,48,29.10
2018,07,25,15,49,29.10
2018,07,25,15,50,29.20
2018,07,25,15,51,29.20
2018,07,25,15,52,29.30
2018,07,25,15,53,29.30
2018,07,25,15,54,29.30
2018,07,25,15,55,29.30
2018,07,25,15,56,29.30
2018,07,25,15,57,29.30
2018,07,25,15,58,29.30
2018,07,25,15,59,29.30
2018,07,25,16,00,29.30
2018,07,25,16,01,29.30
2018,07,25,16,02,29.30
2018,07,25,16,03,29.20
2018,07,25,16,04,29.30
2018,07,25,16,05,29.30
2018,07,25,16,06,29.40
2018,07,25,16,07,29.40
2018,07,25,16,08,29.40
2018,07,25,16,09,29.40
2018,07,25,16,10,29.50
2018,07,25,16,11,29.60
2018,07,25,16,12,29.70
2018,07,25,16,13,29.70
2018,07,25,16,14,29.80
2018,07,25,16,15,29.90
2018,07,25,16,16,30.00
2018,07,25,16,17,30.00
2018,07,25,16,18,30.00
2018,07,25,16,19,30.10
2018,07,25,16,20,30.10
2018,07,25,16,21,30.20
2018,07,25,16,22,30.20
2018,07,25,16,23,30.10
2018,07,25,16,24,30.10
2018,07,25,16,25,30.10
2018,07,25,16,26,30.00
2018,07,25,16,27,30.00
2018,07,25,16,28,30.00
2018,07,25,16,29,29.90
2018,07,25,16,30,29.90
2018,07,25,16,31,29.90
2018,07,25,16,32,29.80
2018,07,25,16,33,29.80
2018,07,25,16,34,29.80
2018,07,25,16,35,29.70
2018,07,25,16,36,29.70
2018,07,25,16,37,29.70
2018,07,25,16,38,29.70
2018,07,25,16,39,29.80
2018,07,25,16,40,29.80
2018,07,25,16,41,29.80
2018,07,25,16,42,29.80
2018,07,25,16,43,29.80
2018,07,25,16,44,29.80
2018,07,25,16,45,29.80
2018,07,25,16,46,29.80
2018,07,25,16,47,29.80
2018,07,25,16,48,29.80
2018,07,25,16,49,29.80
2018,07,25,16,50,29.90
2018,07,25,16,51,29.90
2018,07,25,16,52,29.90
2018,07,25,16,53,30.00
2018,07,25,16,54,30.00
2018,07,25,16,55,30.10
2018,07,25,16,56,30.10
2018,07,25,16,57,30.10
2018,07,25,16,58,30.10
2018,07,25,16,59,30.10
2018,07,25,17,00,30.10
2018,07,25,17,01,30.10
2018,07,25,17,02,30.10
2018,07,25,17,03,30.10
2018,07,25,17,04,30.00
2018,07,25,17,05,30.00
2018,07,25,17,06,29.90
2018,07,25,17,07,29.90
2018,07,25,17,08,29.90
2018,07,25,17,09,30.00
2018,07,25,17,10,30.00
2018,07,25,17,11,30.00
2018,07,25,17,12,30.00
2018,07,25,17,13,30.00
2018,07,25,17,14,29.90
2018,07,25,17,15,29.90
2018,07,25,17,16,29.90
2018,07,25,17,17,30.00
2018,07,25,17,18,30.00
2018,07,25,17,19,30.10